Wautoma, WI

11:01 AM CDT on March 25, 2017 (GMT -0500)
Wautoma

Weather History for KY50 - May, 2013

Change the Weather History Date:

Tuesday, May 14, 2013

  Actual Average (KPCZ) Record (KPCZ)
Temperature  
Mean Temperature 62 °F -  
Max Temperature 82 °F 67 °F 90 °F (1977)
Min Temperature 41 °F 44 °F 31 °F (1964)
Degree Days  
Heating Degree Days 4    
Growing Degree Days 12 (Base 50)    
Moisture  
Dew Point 45 °F    
Average Humidity 47    
Maximum Humidity 85    
Minimum Humidity 23    
Precipitation  
Precipitation 0.00 in - - ()
Sea Level Pressure  
Sea Level Pressure 29.67 in    
Wind  
Wind Speed 7 mph (SSE)    
Max Wind Speed 16 mph    
Max Gust Speed 21 mph    
Visibility 9 miles    
Events      
Averages and records for this station are not official NWS values.
T = Trace of Precipitation, MM = Missing Value Source: NWS Daily Summary

Daily Weather History Graph

Daily Weather History Graph

Search for Another Location

Airport or City:

Trip Planner

Search our weather history database for the weather conditions in past years. The results will help you decide how hot, cold, wet, or windy it might be!

Date:

Astronomy

May. 14, 2013 Rise Set
Actual Time 5:31 AM CDT 8:15 PM CDT
Civil Twilight 4:58 AM CDT 8:49 PM CDT
Nautical Twilight 4:16 AM CDT 9:31 PM CDT
Astronomical Twilight 3:28 AM CDT 10:20 PM CDT
Moon 9:11 AM CDT (5/14) No Moon Set
Length of Visible Light 15h 50m
Length of Day
14h 44m
Waxing Crescent, 19% of the Moon is Illuminated
May 14
Waxing Crescent
May 17
First Quarter
May 24
Full
May 31
Last Quarter
Jun 8
New

Hourly Weather History & Observations

Time (CDT) Temp. Dew Point Humidity Pressure Visibility Wind Dir Wind Speed Gust Speed Precip Events Conditions
12:56 AM 47.8 °F 32.9 °F 56% 29.85 in 10.0 mi SE 8.1 mph - N/A   Partly Cloudy
1:56 AM 46.9 °F 34.0 °F 61% 29.80 in 10.0 mi SE 6.9 mph - N/A   Clear
2:56 AM 47.8 °F 34.9 °F 61% 29.76 in 10.0 mi SE 5.8 mph - N/A   Mostly Cloudy
3:56 AM 48.2 °F 35.6 °F 62% 29.74 in 10.0 mi SSE 4.6 mph - N/A   Clear
4:56 AM 43.0 °F 36.9 °F 79% 29.73 in 10.0 mi Calm Calm - N/A   Clear
5:56 AM 41.0 °F 36.9 °F 85% 29.72 in 10.0 mi Calm Calm - N/A   Clear
6:56 AM 46.4 °F 37.4 °F 71% 29.71 in 10.0 mi Calm Calm - N/A   Clear
7:56 AM 57.9 °F 41.9 °F 55% 29.70 in 10.0 mi SW 3.5 mph - N/A   Clear
8:56 AM 64.9 °F 45.9 °F 50% 29.70 in 10.0 mi Variable 4.6 mph - N/A   Clear
9:56 AM 71.6 °F 46.4 °F 41% 29.72 in 10.0 mi Variable 5.8 mph - N/A   Clear
10:56 AM 73.9 °F 45.9 °F 37% 29.72 in 10.0 mi West 4.6 mph - N/A   Clear
11:37 AM 78.8 °F 46.4 °F 32% 29.73 in 1.8 mi Variable 5.8 mph - N/A   Haze
11:43 AM 78.8 °F 44.6 °F 30% 29.73 in 3.0 mi West 4.6 mph - N/A   Haze
11:56 AM 79.9 °F 43.9 °F 28% 29.72 in 10.0 mi Variable 4.6 mph - N/A   Clear
12:56 PM 82.4 °F 42.8 °F 25% 29.75 in 10.0 mi WNW 9.2 mph - N/A   Clear
1:56 PM 81.0 °F 39.9 °F 23% 29.75 in 10.0 mi North 8.1 mph - N/A   Clear
2:56 PM 81.0 °F 46.9 °F 30% 29.65 in 10.0 mi ESE 6.9 mph - N/A   Clear
3:56 PM 82.4 °F 48.2 °F 30% 29.64 in 10.0 mi SE 13.8 mph - N/A   Clear
4:56 PM 81.9 °F 46.9 °F 29% 29.61 in 10.0 mi SE 15.0 mph 20.7 mph N/A   Clear
5:56 PM 81.9 °F 48.9 °F 32% 29.58 in 10.0 mi SE 16.1 mph - N/A   Clear
6:56 PM 78.8 °F 51.8 °F 39% 29.56 in 10.0 mi SE 15.0 mph - N/A   Clear
7:56 PM 74.8 °F 54.0 °F 48% 29.52 in 10.0 mi SE 11.5 mph - 0.00 in   Clear
8:56 PM 72.9 °F 54.0 °F 51% 29.50 in 10.0 mi SSE 4.6 mph - N/A   Clear
9:56 PM 66.2 °F 55.4 °F 68% 29.52 in 10.0 mi NNW 9.2 mph - N/A   Clear
10:56 PM 77.9 °F 52.9 °F 42% 29.48 in 10.0 mi SW 12.7 mph - N/A   Clear
11:56 PM 75.9 °F 55.9 °F 50% 29.51 in 10.0 mi WSW 10.4 mph - N/A   Clear